Location: Sternwarte Zollern-Alb
(48.2880°N, 8.6780°E)
Time: 03:04:40
(UTC+02:00)

ISS - Pass Details

Date: 26 April 2026
Orbit: 414 x 424 km, 51.6° (Epoch: 19 May)

Event Time Altitude Azimuth Distance (km) Brightness Sun altitude
Exits shadow 03:59:40 60° 154° (SSE) 482 -3.7 -19.1°
Maximum altitude 03:59:41 60° 152° (SSE) 482 -3.7 -19.1°
Drops below altitude 10° 04:03:01 10° 72° (ENE) 1,503 -0.1 -18.8°
Sets 04:05:08 0° 68° (ENE) 2,372 1.2 -18.5°
